[[{"header":{"parameterUnit":"m.s-1","parameterCategory":1,"la1":30.2991,"la2":30.254,"lo1":-89.0895,"lo2":-89.0444,"dy":0.0017,"dx":0.0017,"nx":28,"ny":28,"refTime":"2025-05-15T21:00:00:Z","depth":0,"parameterNumber":2,"parameterNumberName":"U-component_of_WINDS"},"data":[0,0,0,0,0,0,0,0,0,0,0,0,0,0,0,0,0,0,0,0,0,0,0,0,0,0,0,0,0,0,0,0,0,0,0,0,0,0,0,0,0,0,0,0,0,0,0,0,0,0,0,0,0,0,0,0,0,0,1.6813,1.6814,0,1.6909,1.691,1.6912,1.6935,1.6934,1.6934,1.6933,1.7034,1.7037,1.7041,0,0,0,0,0,0,0,0,0,0,0,0,0,1.6651,1.6654,1.6813,1.6814,1.6815,1.6909,1.691,1.6912,1.6935,1.6934,1.6934,1.6933,1.7033,1.7037,1.7041,0,0,0,0,0,0,0,0,0,0,0,0,0,1.6732,1.6655,1.6813,1.6838,1.6841,1.6909,1.6911,1.6912,1.6935,1.6934,1.6933,1.6932,1.7032,1.7037,1.7041,1.7091,0,0,1.7056,1.7059,0,0,0,0,0,0,0,0,1.6727,1.6738,1.6833,1.6836,1.684,1.6909,1.6891,1.6972,1.6936,1.69,1.6933,1.6932,1.6993,1.7001,1.7022,1.7096,1.71,1.7057,1.706,1.7062,1.7063,0,0,0,0,0,0,0,1.6722,1.6734,1.6851,1.6835,1.6839,1.6846,1.6856,1.6906,1.6951,1.6903,1.6905,1.6916,1.6995,1.7017,1.7024,1.7102,1.7057,1.7061,1.7064,1.7066,1.7222,1.7224,0,0,0,0,0,0,1.6711,1.6729,1.6848,1.6854,1.678,1.6849,1.6861,1.6888,1.695,1.6959,1.6916,1.6916,1.7009,1.7019,1.7028,1.7091,1.7062,1.7067,1.7069,1.7221,1.7223,1.7224,0,0,0,0,0,0,1.6708,1.6722,1.6844,1.6792,1.6808,1.6853,1.6883,1.689,1.6912,1.6961,1.6969,1.693,1.7009,1.7021,1.7075,1.7094,1.7069,1.7073,1.722,1.7222,1.7223,1.7216,0,0,0,0,0,0,1.6703,1.672,1.6739,1.6792,1.6811,1.6889,1.6884,1.6893,1.692,1.6921,1.6976,1.6984,1.7009,1.7068,1.708,1.7101,1.7077,1.7218,1.7221,1.7223,1.7215,1.7217,1.7219,0,0,0,0,0,1.6697,1.6733,1.674,1.6754,1.6835,1.689,1.6901,1.6928,1.6922,1.6941,1.6973,1.6982,1.709,1.7073,1.7087,1.711,1.7217,1.722,1.7223,1.7214,1.7217,1.7219,0,0,0,0,0,0,1.6681,1.6741,1.6749,1.6803,1.6841,1.6894,1.6919,1.693,1.6972,1.6971,1.7004,1.7016,1.7068,1.7094,1.7074,1.7161,1.7154,1.7159,1.7142,1.7146,1.7148,1.714,1.7081,0,0,0,0,0,1.6684,1.6723,1.6773,1.6816,1.6835,1.6874,1.6899,1.6916,1.6958,1.6974,1.701,1.705,1.7093,1.7121,1.7163,1.7219,1.7231,1.7241,1.7244,1.7245,1.725,1.7282,1.7287,1.7233,1.7233,1.7233,0,0,1.669,1.6728,1.675,1.6814,1.6846,1.6886,1.6887,1.693,1.696,1.6981,1.7034,1.7062,1.7109,1.7164,1.719,1.7188,1.7268,1.7249,1.725,1.7253,1.7285,1.729,1.7295,1.7235,1.7234,1.7234,0,0,1.6722,1.6754,1.6794,1.6826,1.6874,1.6899,1.6909,1.696,1.6979,1.7033,1.7049,1.7087,1.716,1.7193,1.722,1.7265,1.7276,1.7278,1.7291,1.7322,1.7326,1.733,1.7346,1.7352,1.7283,1.7283,1.7283,0,1.6724,1.6785,1.6813,1.6855,1.6883,1.6903,1.6944,1.6974,1.7033,1.7053,1.7049,1.7142,1.7175,1.7239,1.725,1.7271,1.7283,1.7272,1.7323,1.7327,1.7331,1.7347,1.7353,1.7283,1.7283,1.7283,1.7283,0,1.6785,1.6827,1.6853,1.691,1.6941,1.6982,1.7017,1.7046,1.7061,1.7087,1.7142,1.7183,1.7234,1.7251,1.7266,1.7317,1.7314,1.7316,1.7309,1.7336,1.7352,1.7358,1.7283,1.7283,1.7283,1.7283,0,0,1.6808,1.6881,1.689,1.6916,1.6971,1.7005,1.7047,1.7097,1.7121,1.7161,1.7198,1.7261,1.7263,1.7293,1.7313,1.734,1.7374,1.7339,1.7341,1.7344,1.7433,1.743,1.7437,1.7381,1.7383,1.7384,1.7429,0,1.6847,1.6923,1.695,1.7013,1.7053,1.7073,1.7111,1.7149,1.7175,1.7213,1.7242,1.7286,1.7286,1.7304,1.7332,1.7364,1.7392,1.7361,1.7417,1.7418,1.7404,1.7445,1.7443,1.7483,1.7435,1.7436,1.7437,0,1.6902,1.6943,1.701,1.7061,1.7078,1.7111,1.7159,1.7195,1.724,1.7257,1.7291,1.7309,1.7355,1.7345,1.741,1.7388,1.7413,1.7432,1.7435,1.7441,1.7429,1.7452,1.7497,1.7502,1.7447,1.7446,1.7445,0,1.6913,1.6985,1.7034,1.7056,1.7117,1.7139,1.7166,1.7209,1.7237,1.728,1.7299,1.7346,1.7372,1.7409,1.7439,1.743,1.7502,1.7495,1.7518,1.7517,1.7532,1.753,1.758,1.7548,1.7548,1.7548,1.7547,0,1.6953,1.6993,1.704,1.707,1.7116,1.7148,1.7193,1.722,1.7259,1.7296,1.7317,1.7351,1.7389,1.7429,1.7453,1.7503,1.7515,1.7531,1.7537,1.7529,1.7527,1.7545,1.7543,1.7549,1.7549,1.7549,1.7548,0,1.6972,1.7005,1.706,1.7113,1.7128,1.7159,1.7205,1.7236,1.7263,1.7309,1.7322,1.7365,1.7413,1.7447,1.7509,1.7525,1.7579,1.7585,1.7564,1.7567,1.7588,1.7585,1.7651,1.7662,1.7622,1.7623,1.7623,0,1.6995,1.7026,1.7083,1.7109,1.7135,1.7176,1.7205,1.7238,1.7268,1.7321,1.7345,1.7394,1.7435,1.7511,1.7548,1.7596,1.7603,1.7623,1.761,1.7601,1.7603,1.7601,1.7604,1.7624,1.7625,1.7625,1.7625,0,1.7033,1.7048,1.7089,1.7136,1.717,1.7208,1.7247,1.7267,1.7307,1.7339,1.7388,1.742,1.7483,1.7531,1.7583,1.7611,1.7625,1.7629,1.7637,1.7629,1.7615,1.7623,1.7569,1.7627,1.7627,1.7627,1.7627,1.7626,1.7055,1.7084,1.7128,1.7173,1.7206,1.7242,1.7274,1.7305,1.7346,1.7399,1.7416,1.7467,1.7512,1.7582,1.7611,1.7651,1.7651,1.7662,1.7665,1.7667,1.7667,1.7609,1.7661,1.7661,1.7661,1.7661,1.7661,0,1.7093,1.7123,1.7164,1.7218,1.7254,1.7264,1.7308,1.7337,1.7381,1.7421,1.7461,1.7517,1.7565,1.7606,1.7656,1.768,1.7688,1.7692,1.7691,1.7697,1.7665,1.7653,1.7685,1.7685,1.7685,1.7685,1.7685,1.7685,1.7118,1.7167,1.7188,1.7255,1.7284,1.7334,1.7358,1.7392,1.7424,1.7486,1.7525,1.7552,1.7593,1.7645,1.769,1.7701,1.7718,1.7721,1.7733,1.7702,1.7699,1.7696,1.7685,1.7724,1.7724,1.7762,1.7763,1.7763]},{"header":{"parameterUnit":"m.s-1","parameterCategory":1,"la1":30.2991,"la2":30.254,"lo1":-89.0895,"lo2":-89.0444,"dy":0.0017,"dx":0.0017,"nx":28,"ny":28,"refTime":"2025-05-15T21:00:00:Z","depth":0,"parameterNumber":3,"parameterNumberName":"V-component_of_WINDS"},"data":[0,0,0,0,0,0,0,0,0,0,0,0,0,0,0,0,0,0,0,0,0,0,0,0,0,0,0,0,0,0,0,0,0,0,0,0,0,0,0,0,0,0,0,0,0,0,0,0,0,0,0,0,0,0,0,0,0,0,2.7214,2.7214,0,2.721,2.721,2.721,2.7215,2.7216,2.7216,2.7216,2.7209,2.7208,2.7208,0,0,0,0,0,0,0,0,0,0,0,0,0,2.7224,2.7224,2.7214,2.7214,2.7213,2.721,2.721,2.7209,2.7215,2.7216,2.7216,2.7216,2.7209,2.7208,2.7208,0,0,0,0,0,0,0,0,0,0,0,0,0,2.722,2.7224,2.7214,2.7216,2.7216,2.721,2.721,2.7209,2.7215,2.7216,2.7216,2.7216,2.7209,2.7208,2.7208,2.7198,0,0,2.7206,2.7206,0,0,0,0,0,0,0,0,2.722,2.7219,2.7216,2.7216,2.7216,2.7213,2.7211,2.7205,2.7215,2.7215,2.7216,2.7216,2.721,2.7209,2.7208,2.7197,2.7197,2.7206,2.7206,2.7205,2.7205,0,0,0,0,0,0,0,2.722,2.7219,2.7212,2.7216,2.7216,2.7217,2.7216,2.721,2.7211,2.7215,2.7216,2.7216,2.721,2.7208,2.7207,2.7197,2.7206,2.7206,2.7205,2.7205,2.7179,2.7179,0,0,0,0,0,0,2.722,2.722,2.7212,2.7212,2.7219,2.7216,2.7216,2.7214,2.7211,2.7211,2.7215,2.7216,2.7209,2.7208,2.7207,2.7196,2.7205,2.7205,2.7205,2.718,2.7179,2.7179,0,0,0,0,0,0,2.7221,2.722,2.7212,2.7216,2.7215,2.7216,2.7213,2.7214,2.7212,2.7211,2.7211,2.7213,2.7209,2.7208,2.7201,2.7196,2.7205,2.7204,2.718,2.718,2.7179,2.7173,0,0,0,0,0,0,2.7221,2.722,2.7216,2.7216,2.7215,2.7206,2.7213,2.7213,2.7211,2.7212,2.7209,2.7209,2.7209,2.7201,2.72,2.7195,2.7204,2.7181,2.718,2.7179,2.7174,2.7172,2.7171,0,0,0,0,0,2.7221,2.7214,2.7216,2.7215,2.7211,2.7206,2.7205,2.7207,2.7211,2.7207,2.7207,2.7209,2.7197,2.7201,2.7199,2.7194,2.7181,2.718,2.7179,2.7174,2.7173,2.7171,0,0,0,0,0,0,2.7212,2.7214,2.7216,2.7209,2.7207,2.7207,2.7202,2.7205,2.7202,2.7202,2.7204,2.7203,2.7195,2.7194,2.7198,2.7185,2.7189,2.7188,2.7186,2.7184,2.7183,2.7184,2.7203,0,0,0,0,0,2.721,2.7207,2.7208,2.7201,2.72,2.7201,2.7199,2.7201,2.7199,2.7198,2.7197,2.7194,2.719,2.7187,2.7183,2.7174,2.7173,2.7169,2.7168,2.7167,2.7166,2.7162,2.716,2.7177,2.7177,2.7177,0,0,2.7204,2.7204,2.7202,2.7199,2.7198,2.7194,2.7201,2.7196,2.7193,2.7197,2.7191,2.719,2.7187,2.7179,2.7175,2.7177,2.7162,2.7166,2.7165,2.7165,2.7161,2.7159,2.7158,2.7176,2.7176,2.7176,0,0,2.7191,2.7191,2.7186,2.7186,2.7185,2.7186,2.7185,2.7184,2.7184,2.7178,2.7181,2.7177,2.7169,2.7168,2.7166,2.7154,2.7156,2.7152,2.7146,2.7142,2.7141,2.7139,2.7136,2.7134,2.7151,2.7151,2.7151,0,2.7184,2.7179,2.7183,2.7178,2.7177,2.7182,2.7177,2.7176,2.7173,2.7172,2.7175,2.7166,2.7164,2.7156,2.7153,2.7151,2.715,2.7153,2.7141,2.714,2.7138,2.7135,2.7133,2.7151,2.7151,2.7151,2.7151,0,2.717,2.7167,2.7162,2.7162,2.716,2.7155,2.7157,2.7155,2.7157,2.7158,2.7151,2.715,2.7146,2.7144,2.7145,2.7136,2.7138,2.7141,2.7145,2.7136,2.7133,2.7132,2.7151,2.7151,2.7151,2.7151,0,0,2.7151,2.7153,2.7151,2.7152,2.7152,2.7149,2.7144,2.7142,2.714,2.7138,2.7134,2.7128,2.7131,2.7129,2.713,2.7127,2.7118,2.713,2.713,2.7128,2.7109,2.7107,2.7105,2.712,2.712,2.7119,2.7109,0,2.7138,2.7132,2.7136,2.7128,2.7125,2.7131,2.7127,2.7126,2.7127,2.7124,2.7124,2.712,2.7125,2.7124,2.712,2.712,2.7114,2.7121,2.7116,2.7116,2.7116,2.7103,2.71,2.7091,2.7108,2.7107,2.7107,0,2.7123,2.7123,2.7115,2.7117,2.7116,2.7112,2.7111,2.7108,2.7108,2.7109,2.7107,2.711,2.7105,2.711,2.7104,2.7108,2.7106,2.7106,2.7106,2.7105,2.7111,2.7102,2.7087,2.7086,2.7105,2.7105,2.7105,0,2.711,2.7107,2.7103,2.7103,2.7105,2.7102,2.7103,2.7103,2.7101,2.71,2.7099,2.7096,2.7095,2.7093,2.7094,2.7098,2.7088,2.7093,2.7088,2.7088,2.7085,2.7085,2.707,2.7084,2.7084,2.7084,2.7084,0,2.7096,2.7091,2.7097,2.7094,2.709,2.7094,2.7088,2.7089,2.709,2.7087,2.7091,2.7088,2.709,2.7088,2.7089,2.7083,2.7082,2.7083,2.7083,2.7082,2.7082,2.7081,2.7082,2.7084,2.7084,2.7084,2.7084,0,2.708,2.7084,2.708,2.7083,2.7083,2.708,2.7082,2.7079,2.7081,2.7077,2.7077,2.7079,2.7076,2.7078,2.7074,2.7075,2.7068,2.7069,2.7069,2.7069,2.7064,2.7065,2.7048,2.7046,2.7061,2.7061,2.706,0,2.7071,2.7068,2.7071,2.707,2.7071,2.7069,2.7068,2.7072,2.7071,2.7071,2.7069,2.7067,2.7065,2.706,2.7061,2.7058,2.7059,2.7054,2.7059,2.7059,2.706,2.706,2.706,2.7052,2.7052,2.7052,2.7052,0,2.7054,2.7057,2.7056,2.7056,2.7056,2.7056,2.7056,2.7055,2.7059,2.7057,2.7055,2.7054,2.7052,2.705,2.7048,2.7048,2.705,2.7051,2.7049,2.7048,2.7048,2.7049,2.7066,2.7051,2.7051,2.7051,2.7051,2.7051,2.7041,2.7039,2.7042,2.7041,2.7042,2.7043,2.7041,2.7043,2.7042,2.7041,2.7043,2.7041,2.7041,2.7039,2.7039,2.7037,2.7039,2.7037,2.7036,2.7036,2.7035,2.7049,2.7036,2.7036,2.7036,2.7036,2.7036,0,2.7025,2.7027,2.7027,2.7028,2.7027,2.7032,2.7033,2.7032,2.703,2.7031,2.703,2.7028,2.7026,2.7027,2.7026,2.7023,2.7025,2.7023,2.7023,2.7023,2.7033,2.7035,2.7022,2.7022,2.7022,2.7022,2.7022,2.7022,2.7016,2.7013,2.7016,2.7014,2.7016,2.7014,2.7015,2.7015,2.7016,2.7014,2.7013,2.7015,2.7016,2.7015,2.7013,2.7014,2.7013,2.701,2.7011,2.7021,2.7022,2.7023,2.7025,2.701,2.701,2.7001,2.7001,2.7001]}]]